Regional Weather Roundup
Issued by NWS

Home | Current Version | Previous Version | Graphics & Text | Print | Product List | Glossary On
Versions: 1 2 3 4 5 6 7 8 9 10 11 12 13 14 15 16 17 18 19 20 21 22 23 24 25 26 27 28 29 30 31 32 33 34 35 36 37 38 39 40 41 42 43 44 45 46 47 48 49 50
000
ASUS43 KTOP 240208
RWRKS

WEATHER ROUNDUP FOR KANSAS
NATIONAL WEATHER SERVICE GOODLAND KS
800 PM CST MON JAN 23 2017

NOTE:  "FAIR" INDICATES FEW OR NO CLOUDS BELOW 12,000 FEET WITH NO
SIGNIFICANT WEATHER AND/OR OBSTRUCTIONS TO VISIBILITY.

KSZ001>006-013>018-027>032-041>047-240300-
NORTHWEST KANSAS

CITY           SKY/WX    TMP DP  RH WIND       PRES   REMARKS
GOODLAND       CLEAR     36  29  75 E9        29.52F
HAYS           CLEAR     37  32  82 E9        29.62S
HILL CITY      CLEAR     39  33  79 E8        29.59S
RUSSELL        CLEAR     40  33  76 SE15      29.62F WCI  32
$$

KSZ061>065-074>080-084>089-240300-
SOUTHWEST KANSAS

CITY           SKY/WX    TMP DP  RH WIND       PRES   REMARKS
DODGE CITY     CLEAR     44  34  67 SE13      29.58F
ELKHART          N/A     53  24  32 SW13        N/A
GARDEN CITY    CLEAR     42  32  67 SE9       29.56F
GREAT BEND     CLEAR     40  34  79 SE9       29.63F
LIBERAL          N/A     52  28  40 W12       29.58F
PRATT          CLEAR     44  32  63 SE12      29.64S
$$

KSZ066>073-081>083-090>101-240300-
SOUTHEAST KANSAS

CITY           SKY/WX    TMP DP  RH WIND       PRES   REMARKS
CHANUTE        CLEAR     40  34  79 SE6       29.81S
COFFEYVILLE    CLEAR     40  33  76 E7        29.80F
HUTCHINSON     CLEAR     43  33  68 SE12      29.68S
MEDICINE LODGE   N/A     45  34  65 SE9       29.64F
NEWTON         CLEAR     41  32  70 SE14      29.71F
PARSONS        CLEAR     42  34  73 SE3       29.81F
WICHITA INTL   CLEAR     45  32  60 SE12      29.69F
WICHITA JABRA  CLEAR     44  32  62 SE12      29.71S
WICHITA MCCONL CLEAR     46  31  54 SE12      29.70S
WINFIELD       CLEAR     47  32  56 SE13      29.73F
$$

KSZ007>012-019>026-033>040-048>060-102>105-240300-
NORTHEAST KANSAS

CITY           SKY/WX    TMP DP  RH WIND       PRES   REMARKS
CONCORDIA      CLEAR     37  34  89 E9        29.72R
EMPORIA        CLEAR     41  34  76 SE12      29.77S
LAWRENCE       CLEAR     32  31  96 E6        29.83R
MANHATTAN      CLEAR     36  33  89 NE5       29.77S
MARYSVILLE     CLEAR     32  32 100 SE10      29.77S WCI  24
OLATHE IND     CLEAR     34  32  92 SE7       29.83R
OLATHE EXE     CLEAR     34  32  92 SE6       29.83R
SALINA         CLEAR     46  32  58 E7        29.72S
TOPEKA BILLARD CLEAR     34  30  85 E7        29.82R
TOPEKA FORBES  CLEAR     37  32  82 E9        29.80S
$$




USA.gov is the U.S. government's official web portal to all federal, state and local government web resources and services.